User: anonymous   Login
Location: Bourg-d�Oueil
(42.8588°N, 0.4991°E)
Time: 21:25:40
(UTC+00:00)
Language:

Cosmos 1782 Rocket - Orbit

View from above orbital plane
View from above orbital plane
View from above satellite
View from above satellite

Ground track
Ground track

The orbit data is extracted from the following two-line orbital elements,

1 16987U 86074B   22022.54570500  .00000196  00000-0  20960-4 0  9997
2 16987  82.5169 176.5609 0019443 121.9667 306.0831 14.83158290886410
Epoch (UTC): 22 January 2022 13:05:48
Eccentricity: 0.0019443
inclination: 82.5169°
perigee height: 606 km
apogee height: 633 km
right ascension of ascending node: 176.5609°
argument of perigee: 121.9667°
revolutions per day: 14.83158290
mean anomaly at epoch: 306.0831°
orbit number at epoch: 88641

The dashed part of the orbit path shows where the satellite is in the earth's shadow,  

DLR